BLOCK DM-SL R/B, 54034

Orbit data source: Space-Track

BLOCK DM-SL R/B, 54034 is space debris in GEO originally from a launch on Wed, 12 Oct 2022 UTC launched from the Tyuratam Missile And Space Complex (TTMTR). Debris objects in space refer to the collection of defunct objects orbiting the Earth. Examples of debris include non-operational satellites, rocket bodies, and fragments generated from explosions, collisions, or faulty payload assembly.

Not visible in the next 10 days
Identifier
54034, 2022-131B
Orbit
GEO
Country
Flag of CISCIS
Related business
Manufacturer
RKKE
Mission
Spacecraft
Bus & Motor
BLOK DM2, 11D58M
Mass
2,440 kg wet, 2,440 kg dry
Launch date (UTC)
2022-10-12 (3 years ago)
Launch vehicle
Unknown
Launch site
Tyuratam Missile And Space Complex (TTMTR)
Object type
Payload
Rocket body
Debris
Shape & HBR
Cyl, 3.5 m
Radar Cross Section
26.008 m², Medium (>0.1 m² and < 1m²)

Expand to show TLE details & history
Last TLE update: 1 day ago

TLE from 1 day ago
0 BLOCK DM-SL R/B
1 54034U 22131B   25257.94849280 -.00000088  00000-0  00000-0 0  9997
2 54034   2.6568  82.3867 0078767  31.4624 329.4231  0.97748506 10432
Epoch: 2025-09-14T22:45Z
TLE epoch observation values (Epoch: 2025-09-14T22:45:49.777Z)
Latitude
-0°
Longitude
107.18149°
Altitude
36,219.634 km
Speed
3.069 km/s
True Right ascension
05h 31m 11s
True Declination
0° 00' 00"
Sunlit
Object was in daylight at epoch
Visualization orbit readout
Latitude
Unknown
Longitude
Unknown
Altitude
Unknown
Speed
Unknown
Apparent Right ascension
Unknown
Apparent Declination
Unknown
Sunlit
N/A
Visualization observer readout
Local Sidereal Time
15:50:43
Azimuth
Unknown
Elevation
Unknown
Doppler factor
Unknown
Orbital elements
Apogee altitude
36,848.003 km
Perigee altitude
36,172.367 km
Semi-major axis
42,888.322 km
Eccentricity
0.00788
Inclination
2.6568°
RAAN
82.3867°
Arg. of periapsis
31.4624°
True anomaly
328.96003°
Mean anomaly
329.4231°
Eccentric anomaly
329.19196°
Mean motion
0.24436 °/min
Orbital period
1,473.22 mins
BSTAR
0
Loading maneuver chart data...
Computing Atmospheric mass density...
Loading historical data...
Loading historical data...
Loading historical data...
Loading historical data...
Loading historical data...
Loading historical data...
Loading historical data...
Other satellites on launch #131 in the year 2022 (2022-10-12 UTC)

Documentation

Showing up to 5 results
|